[[{"header":{"parameterUnit":"m.s-1","parameterCategory":1,"la1":30.2991,"la2":30.254,"lo1":-89.0895,"lo2":-89.0444,"dy":0.0017,"dx":0.0017,"nx":28,"ny":28,"refTime":"2026-01-11T09:00:00:Z","depth":0,"parameterNumber":2,"parameterNumberName":"U-component_of_WINDS"},"data":[0,0,0,0,0,0,0,0,0,0,0,0,0,0,0,0,0,0,0,0,0,0,0,0,0,0,0,0,0,0,0,0,0,0,0,0,0,0,0,0,0,0,0,0,0,0,0,0,0,0,0,0,0,0,0,0,0,0,0.5255,0.5254,0,0.5229,0.5229,0.5229,0.5238,0.5238,0.5239,0.5239,0.5211,0.521,0.5209,0,0,0,0,0,0,0,0,0,0,0,0,0,0.531,0.5308,0.5255,0.5254,0.5254,0.5229,0.5229,0.5229,0.5238,0.5238,0.5239,0.524,0.5212,0.521,0.5209,0,0,0,0,0,0,0,0,0,0,0,0,0,0.5285,0.5308,0.5255,0.5256,0.5255,0.523,0.5229,0.5229,0.5237,0.5238,0.5239,0.524,0.5212,0.521,0.5209,0.518,0,0,0.5203,0.5202,0,0,0,0,0,0,0,0,0.5286,0.5283,0.5256,0.5255,0.5255,0.5238,0.5238,0.5212,0.5237,0.5244,0.5239,0.524,0.5219,0.5217,0.521,0.5178,0.5177,0.5203,0.5201,0.5201,0.52,0,0,0,0,0,0,0,0.5288,0.5284,0.5245,0.5255,0.5255,0.5257,0.5254,0.5233,0.5227,0.5244,0.5244,0.5241,0.5219,0.5212,0.521,0.5177,0.5203,0.5201,0.52,0.5199,0.5121,0.512,0,0,0,0,0,0,0.529,0.5286,0.5245,0.5244,0.5273,0.5255,0.5252,0.5242,0.5227,0.5226,0.5241,0.5242,0.5215,0.5212,0.5209,0.5174,0.5201,0.5199,0.5198,0.5122,0.5121,0.512,0,0,0,0,0,0,0.5291,0.5287,0.5246,0.5265,0.526,0.5253,0.5242,0.5241,0.5234,0.5225,0.5224,0.5234,0.5215,0.5211,0.5187,0.5173,0.5198,0.5196,0.5123,0.5121,0.512,0.5104,0,0,0,0,0,0,0.5293,0.5287,0.5276,0.5265,0.5259,0.5225,0.5241,0.524,0.5231,0.5232,0.5219,0.5217,0.5216,0.519,0.5185,0.5171,0.5195,0.5124,0.5122,0.5121,0.5106,0.5102,0.5099,0,0,0,0,0,0.5295,0.5272,0.5275,0.527,0.5245,0.5225,0.5221,0.522,0.523,0.5219,0.5213,0.5218,0.5176,0.5187,0.5182,0.5167,0.5125,0.5123,0.5121,0.5107,0.5103,0.5099,0,0,0,0,0,0,0.528,0.527,0.5274,0.5247,0.5237,0.5226,0.5212,0.5216,0.5202,0.5204,0.5203,0.52,0.5175,0.5169,0.5182,0.5139,0.5152,0.5148,0.5143,0.5139,0.5136,0.5137,0.5193,0,0,0,0,0,0.5274,0.5259,0.5251,0.5228,0.5222,0.5218,0.5209,0.521,0.5199,0.5194,0.5187,0.5176,0.516,0.5149,0.5134,0.5106,0.5103,0.5093,0.509,0.5087,0.5084,0.5068,0.5063,0.5113,0.5113,0.5113,0,0,0.5261,0.5254,0.5244,0.5224,0.5217,0.52,0.5214,0.5196,0.5184,0.5191,0.5168,0.5162,0.515,0.5123,0.5111,0.5117,0.507,0.5084,0.5082,0.508,0.5065,0.5061,0.5057,0.5111,0.5112,0.5112,0,0,0.5228,0.5221,0.5201,0.5194,0.5182,0.518,0.5175,0.5164,0.5161,0.5138,0.5143,0.5129,0.5102,0.5093,0.5085,0.5051,0.5055,0.5046,0.5028,0.5013,0.501,0.5006,0.4993,0.4989,0.5043,0.5043,0.5043,0,0.5212,0.5189,0.519,0.5172,0.5163,0.5171,0.515,0.5143,0.5127,0.512,0.5128,0.5095,0.5087,0.5059,0.5051,0.5044,0.5038,0.5047,0.501,0.5007,0.5003,0.4991,0.4987,0.5042,0.5042,0.5042,0.5043,0,0.517,0.5154,0.5139,0.5124,0.5114,0.5095,0.5093,0.5083,0.5085,0.5082,0.5059,0.505,0.5033,0.5027,0.5028,0.4999,0.5003,0.5011,0.5023,0.4998,0.4986,0.4982,0.5041,0.5041,0.5041,0.5042,0,0,0.5125,0.5113,0.5107,0.5101,0.509,0.5077,0.5059,0.5044,0.5035,0.5024,0.5008,0.4986,0.4993,0.4984,0.4985,0.4972,0.4945,0.4981,0.498,0.4974,0.4912,0.4906,0.49,0.4949,0.4948,0.4947,0.4913,0,0.5091,0.5059,0.506,0.503,0.5015,0.5022,0.5006,0.4998,0.4995,0.4981,0.4978,0.4962,0.4973,0.4968,0.4956,0.4951,0.4932,0.4954,0.4933,0.4932,0.4934,0.4894,0.4887,0.4855,0.4908,0.4908,0.4907,0,0.5046,0.5034,0.5003,0.4995,0.4989,0.4974,0.4961,0.4948,0.4939,0.4938,0.4929,0.4932,0.4913,0.4928,0.4902,0.4917,0.4909,0.4905,0.4904,0.4901,0.4917,0.4889,0.4845,0.484,0.49,0.4901,0.4901,0,0.5015,0.4992,0.497,0.4965,0.4955,0.4945,0.494,0.4932,0.4923,0.4912,0.4906,0.4893,0.4885,0.4874,0.4874,0.4885,0.4848,0.4862,0.4846,0.4845,0.4836,0.4836,0.4789,0.4833,0.4833,0.4833,0.4833,0,0.4975,0.4955,0.4957,0.4943,0.4921,0.4924,0.4902,0.4899,0.4892,0.4877,0.4884,0.487,0.4871,0.4857,0.4857,0.4836,0.4832,0.4831,0.483,0.4829,0.4829,0.4822,0.4824,0.4832,0.4832,0.4832,0.4833,0,0.4936,0.4937,0.4913,0.4907,0.4905,0.4889,0.4883,0.487,0.4869,0.4851,0.4847,0.4845,0.4829,0.4828,0.481,0.481,0.4784,0.4787,0.4787,0.4787,0.477,0.4771,0.4715,0.4708,0.4758,0.4757,0.4757,0,0.491,0.4896,0.4888,0.4879,0.4874,0.486,0.4852,0.4854,0.4845,0.4835,0.4823,0.4808,0.4796,0.4771,0.4768,0.4754,0.4756,0.4738,0.4754,0.4753,0.4755,0.4755,0.4753,0.4734,0.4733,0.4733,0.4732,0,0.4864,0.4865,0.4853,0.4841,0.4831,0.4821,0.4813,0.4805,0.4807,0.4796,0.4781,0.4772,0.4755,0.474,0.4727,0.4722,0.4727,0.4728,0.4723,0.4721,0.4721,0.472,0.4777,0.4728,0.4729,0.4729,0.4729,0.473,0.483,0.4817,0.481,0.4797,0.4791,0.4783,0.4771,0.4768,0.4756,0.4742,0.4745,0.4727,0.472,0.4703,0.4698,0.4684,0.469,0.4683,0.4681,0.4679,0.4677,0.4725,0.4682,0.4682,0.4682,0.4682,0.4682,0,0.4783,0.4779,0.4767,0.4755,0.4745,0.4752,0.4743,0.4734,0.4719,0.4712,0.47,0.4683,0.4669,0.4666,0.4652,0.4642,0.4644,0.4639,0.4639,0.4637,0.4673,0.4678,0.4637,0.4637,0.4637,0.4637,0.4637,0.4637,0.4757,0.4736,0.4737,0.4713,0.471,0.4693,0.4688,0.468,0.4675,0.4655,0.4644,0.4642,0.4637,0.4623,0.4611,0.461,0.4605,0.4598,0.4598,0.463,0.4635,0.4639,0.4644,0.4597,0.4597,0.4563,0.4563,0.4563]},{"header":{"parameterUnit":"m.s-1","parameterCategory":1,"la1":30.2991,"la2":30.254,"lo1":-89.0895,"lo2":-89.0444,"dy":0.0017,"dx":0.0017,"nx":28,"ny":28,"refTime":"2026-01-11T09:00:00:Z","depth":0,"parameterNumber":3,"parameterNumberName":"V-component_of_WINDS"},"data":[0,0,0,0,0,0,0,0,0,0,0,0,0,0,0,0,0,0,0,0,0,0,0,0,0,0,0,0,0,0,0,0,0,0,0,0,0,0,0,0,0,0,0,0,0,0,0,0,0,0,0,0,0,0,0,0,0,0,-8.8158,-8.816,0,-8.8375,-8.8378,-8.838,-8.8304,-8.8299,-8.8294,-8.829,-8.8507,-8.8517,-8.8527,0,0,0,0,0,0,0,0,0,0,0,0,0,-8.7673,-8.7683,-8.8158,-8.8161,-8.8163,-8.8375,-8.8378,-8.8381,-8.8305,-8.8299,-8.8293,-8.8287,-8.8504,-8.8516,-8.8528,0,0,0,0,0,0,0,0,0,0,0,0,0,-8.7886,-8.7686,-8.8157,-8.8151,-8.8153,-8.8374,-8.8378,-8.8382,-8.8306,-8.8299,-8.8291,-8.8285,-8.85,-8.8515,-8.853,-8.877,0,0,-8.8577,-8.8584,0,0,0,0,0,0,0,0,-8.7875,-8.7904,-8.8149,-8.8152,-8.8154,-8.8305,-8.8287,-8.8512,-8.8308,-8.8248,-8.8289,-8.8281,-8.8445,-8.8465,-8.8521,-8.878,-8.8789,-8.8578,-8.8588,-8.8594,-8.8599,0,0,0,0,0,0,0,-8.786,-8.7895,-8.8244,-8.8153,-8.8156,-8.8136,-8.8158,-8.8329,-8.8384,-8.8252,-8.8247,-8.8274,-8.8445,-8.8507,-8.8526,-8.8792,-8.8578,-8.8592,-8.8601,-8.8607,-8.926,-8.9267,0,0,0,0,0,0,-8.7844,-8.7883,-8.8237,-8.825,-8.7994,-8.8151,-8.8176,-8.8264,-8.8382,-8.8393,-8.828,-8.827,-8.8484,-8.8508,-8.8533,-8.8823,-8.8594,-8.8609,-8.8618,-8.9252,-8.9261,-8.927,0,0,0,0,0,0,-8.7834,-8.7877,-8.8228,-8.8065,-8.8109,-8.8167,-8.8266,-8.8272,-8.8333,-8.8403,-8.8412,-8.8333,-8.8479,-8.8511,-8.8712,-8.8829,-8.8616,-8.863,-8.9242,-8.9255,-8.9266,-8.9404,0,0,0,0,0,0,-8.7821,-8.7874,-8.7966,-8.8068,-8.8118,-8.8405,-8.8274,-8.8281,-8.8361,-8.8349,-8.8455,-8.8466,-8.8476,-8.869,-8.8727,-8.8847,-8.8642,-8.9232,-8.9248,-8.9262,-8.9389,-8.9419,-8.9445,0,0,0,0,0,-8.7804,-8.7995,-8.7971,-8.8014,-8.8235,-8.8412,-8.844,-8.8449,-8.837,-8.8464,-8.8509,-8.8462,-8.881,-8.8711,-8.8753,-8.8879,-8.9224,-8.9243,-8.9261,-8.9377,-8.9413,-8.9445,0,0,0,0,0,0,-8.7903,-8.8008,-8.7983,-8.8213,-8.8305,-8.8399,-8.8516,-8.8488,-8.8602,-8.8586,-8.8591,-8.8616,-8.8823,-8.887,-8.8757,-8.9117,-8.9005,-8.9033,-8.9079,-8.9115,-8.9142,-8.9127,-8.8654,0,0,0,0,0,-8.7952,-8.8089,-8.8172,-8.8367,-8.8414,-8.8458,-8.8535,-8.8535,-8.8629,-8.8667,-8.8726,-8.8818,-8.8948,-8.9034,-8.9157,-8.9395,-8.9418,-8.9503,-8.953,-8.9553,-8.9577,-8.9708,-8.9747,-8.933,-8.933,-8.9329,0,0,-8.8054,-8.8128,-8.8214,-8.8389,-8.846,-8.86,-8.8491,-8.8643,-8.8748,-8.8689,-8.8883,-8.8931,-8.9033,-8.9255,-8.9355,-8.93,-8.9697,-8.9576,-8.9594,-8.9606,-8.9731,-8.977,-8.9805,-8.9342,-8.934,-8.9338,0,0,-8.8312,-8.8382,-8.8553,-8.8627,-8.8736,-8.8764,-8.8805,-8.8905,-8.8935,-8.913,-8.9089,-8.9212,-8.9436,-8.9512,-8.9579,-8.9868,-8.983,-8.9908,-9.0054,-9.0182,-9.0215,-9.0244,-9.0348,-9.0386,-8.9931,-8.9932,-8.9932,0,-8.8424,-8.8636,-8.8644,-8.8802,-8.888,-8.8836,-8.9009,-8.9079,-8.9223,-8.9277,-8.9215,-8.9496,-8.9562,-8.9801,-8.9872,-8.9928,-8.9975,-8.9896,-9.021,-9.0239,-9.0266,-9.0366,-9.0405,-8.994,-8.9939,-8.9938,-8.9938,0,-8.877,-8.8918,-8.9042,-8.9185,-8.9277,-8.9442,-8.9473,-8.9566,-8.9557,-8.9592,-8.9791,-8.9869,-9.0008,-9.0065,-9.0057,-9.0304,-9.0267,-9.0207,-9.0095,-9.0315,-9.0409,-9.0447,-8.9953,-8.995,-8.9947,-8.9945,0,0,-8.9096,-8.9243,-8.9289,-8.9354,-8.9472,-8.9585,-8.9747,-8.9886,-8.9966,-9.0066,-9.0202,-9.0394,-9.034,-9.0417,-9.0417,-9.0529,-9.0755,-9.0456,-9.0458,-9.051,-9.1033,-9.1078,-9.1123,-9.073,-9.0738,-9.0743,-9.1025,0,-8.9365,-8.9653,-8.9665,-8.9927,-9.0064,-9.0024,-9.0165,-9.0253,-9.0289,-9.041,-9.0449,-9.0585,-9.0503,-9.055,-9.0659,-9.0705,-9.086,-9.0684,-9.0857,-9.0863,-9.0835,-9.1171,-9.1219,-9.1481,-9.1062,-9.1068,-9.1072,0,-8.9718,-8.9832,-9.0109,-9.0209,-9.0267,-9.0394,-9.0523,-9.0639,-9.0737,-9.0755,-9.0843,-9.0827,-9.0993,-9.0874,-9.1103,-9.0983,-9.1054,-9.1087,-9.1097,-9.1115,-9.0982,-9.1199,-9.1565,-9.1605,-9.113,-9.1125,-9.1121,0,-8.9931,-9.0153,-9.0348,-9.0404,-9.0526,-9.0617,-9.0671,-9.0762,-9.0846,-9.0957,-9.1011,-9.114,-9.1211,-9.131,-9.1329,-9.1241,-9.1559,-9.1441,-9.1579,-9.1579,-9.1648,-9.1644,-9.2032,-9.1692,-9.1691,-9.1691,-9.169,0,-9.023,-9.0401,-9.0446,-9.0566,-9.0756,-9.0767,-9.0955,-9.1003,-9.1085,-9.1212,-9.1184,-9.1304,-9.1322,-9.1447,-9.1462,-9.165,-9.1681,-9.1701,-9.1703,-9.1705,-9.1702,-9.1752,-9.1735,-9.1701,-9.1699,-9.1697,-9.1695,0,-9.0501,-9.0537,-9.0747,-9.0846,-9.0875,-9.1011,-9.1095,-9.1209,-9.1243,-9.1405,-9.1444,-9.1496,-9.1642,-9.1671,-9.1841,-9.1852,-9.2076,-9.2059,-9.2044,-9.2042,-9.2179,-9.2166,-9.2614,-9.2674,-9.2293,-9.2296,-9.2299,0,-9.069,-9.0822,-9.0935,-9.102,-9.108,-9.1216,-9.1302,-9.1318,-9.1408,-9.1531,-9.1631,-9.1773,-9.1888,-9.2122,-9.2174,-9.2305,-9.2292,-9.244,-9.2311,-9.2309,-9.2296,-9.2289,-9.2303,-9.2465,-9.2469,-9.2472,-9.2475,0,-9.1024,-9.1036,-9.1161,-9.1294,-9.1398,-9.1502,-9.1601,-9.1672,-9.1701,-9.1803,-9.1953,-9.2042,-9.2218,-9.236,-9.2491,-9.2545,-9.2517,-9.2515,-9.2554,-9.2557,-9.2544,-9.2555,-9.2112,-9.2505,-9.2502,-9.25,-9.2498,-9.2497,-9.1261,-9.1377,-9.1476,-9.1616,-9.1693,-9.1787,-9.1901,-9.195,-9.2075,-9.2221,-9.2222,-9.2386,-9.2481,-9.2655,-9.2718,-9.2845,-9.2798,-9.2854,-9.2869,-9.2883,-9.2897,-9.2523,-9.2869,-9.2868,-9.2867,-9.2866,-9.2866,0,-9.1595,-9.1657,-9.1787,-9.1928,-9.2039,-9.2003,-9.2111,-9.2206,-9.2351,-9.2443,-9.2558,-9.273,-9.2868,-9.2933,-9.3069,-9.3158,-9.3148,-9.3194,-9.3188,-9.3201,-9.293,-9.2883,-9.32,-9.32,-9.32,-9.32,-9.3199,-9.3199,-9.1782,-9.1976,-9.2,-9.2232,-9.2292,-9.2454,-9.252,-9.2606,-9.268,-9.2875,-9.299,-9.3032,-9.3113,-9.3255,-9.338,-9.3395,-9.3447,-9.35,-9.3508,-9.3254,-9.322,-9.3188,-9.3144,-9.351,-9.3511,-9.3769,-9.3772,-9.3774]}]]